LiveATC.Net - Listen to live air traffic control over the Internet!


ICAO: VHHH  IATA: HKG   Airport: Hong Kong International - Chek Lap Kok
City: Hong Kong
Country: Hong Kong   Continent: Asia
VHHH METAR Weather: VHHH 192030Z 11013KT 9999 FEW015 SCT030 28/24 Q1005 TEMPO 3500 SHRA FEW010CB SCT020
VHHH ADS-B Flight Tracking (ADSBExchange)
VHHH Flight Activity (FlightAware)
VHHH Webcam:  (Airport Webcams) 

VHHH App/Dep/Dir/Zone
Feed Status: DOWN
Last heard on: 2022-08-19 09:35:23 (0 days 11 hours 3 minutes ago)
Archive Access: VHHH App/Dep/Dir/Zone
FacilityFrequency
Emergency/Guard121.500
Hong Kong Approach119.100
Hong Kong Approach119.350
Hong Kong Departure122.000
Hong Kong Departure123.800
Hong Kong Departure124.050
Hong Kong Director119.350
Hong Kong Director119.500
Hong Kong Zone120.600

NOTICE

Unauthorized use prohibited. See LiveATC.net Terms of Service


Airport/ARTCC Code
Frequency Search
(e.g., 124.400, 128.75)
Site-wide search
 


Browse Feeds
Top 50 Feeds
HF Oceanic Feeds
Coverage Map
Bad Weather Areas

LiveATC FAQ
Offer LiveATC feed
Contact LiveATC.net
Press Inquiries

LiveATC on iPhone
LiveATC on Android

LiveATC Mobile
(Mobile browser)

ATC Audio Archives
Interesting Recordings

LiveATC Forums


Home Page
About LiveATC.net


Terms of Use
Privacy Policy

AIRMETs/SIGMETs

FAA Airport Status
NAS Status
Arrival Demand


Server Software By:
Icecast.org
Liquidsoap